Location: Unspecified
(0.0000°N, 0.0000°E)
Time: 20:18:18
(UTC+00:00)

N. Korean satellite - Pass Details

Date: 23 May 2017
Orbit: 461 x 513 km, 97.2° (Epoch: 17 December)

Event Time Altitude Azimuth Distance (km) Brightness Sun altitude
Rises 17:52:42 0° 138° (SE) 2,548 9.7 1.0°
Reaches altitude 10° 17:55:31 10° 113° (ESE) 1,678 8.6 0.3°
Drops below altitude 10° 17:59:36 10° 44° (NE) 1,691 9.1 -0.7°
Enters shadow 19:02:16 -54° 171° (S) 10,892 13.3 -15.3°
Maximum altitude 19:30:50 14° 259° (W) 1,428 9.6 -21.9°
